Marshfield, WI

12:01 AM CDT on April 29, 2017 (GMT -0500)
Marshfield Municipal

Weather History for KMFI - November, 2010

Change the Weather History Date:

Saturday, November 13, 2010

  Actual Average Record
Temperature  
Mean Temperature 38 °F -  
Max Temperature 42 °F 40 °F 66 °F (1999)
Min Temperature 34 °F 23 °F -5 °F (1986)
Degree Days  
Heating Degree Days 27    
Moisture  
Dew Point 34 °F    
Average Humidity 95    
Maximum Humidity 100    
Minimum Humidity 85    
Precipitation  
Precipitation 0.38 in - - ()
Sea Level Pressure  
Sea Level Pressure 29.81 in    
Wind  
Wind Speed 15 mph (SE)    
Max Wind Speed 28 mph    
Max Gust Speed 39 mph    
Visibility 6 miles    
Events Rain    
Averages and records for this station are not official NWS values.
T = Trace of Precipitation, MM = Missing Value Source: NWS Daily Summary

Daily Weather History Graph

Daily Weather History Graph

Search for Another Location

Airport or City:

Trip Planner

Search our weather history database for the weather conditions in past years. The results will help you decide how hot, cold, wet, or windy it might be!

Date:

Astronomy

Nov. 13, 2010 Rise Set
Actual Time 6:54 AM CST 4:34 PM CST
Civil Twilight 6:23 AM CST 5:06 PM CST
Nautical Twilight 5:48 AM CST 5:41 PM CST
Astronomical Twilight 5:13 AM CST 6:15 PM CST
Moon 12:45 PM CST (11/13) 11:48 PM CST (11/13)
Length of Visible Light 10h 42m
Length of Day
9h 40m
Waxing Crescent, 51% of the Moon is Illuminated
Nov 13
Waxing Crescent
Nov 21
Full
Nov 28
Last Quarter
Dec 5
New
Dec 13
First Quarter

Hourly Weather History & Observations

Time (CST) Temp. Windchill Dew Point Humidity Pressure Visibility Wind Dir Wind Speed Gust Speed Precip Events Conditions
12:54 AM 35.1 °F 27.4 °F 30.9 °F 85% 30.31 in 6.0 mi East 10.4 mph 18.4 mph 0.03 in Rain Rain
1:54 AM 34.0 °F 23.0 °F 30.9 °F 89% 30.26 in 7.0 mi ENE 18.4 mph 28.8 mph 0.06 in Rain Light Rain
2:54 AM 34.0 °F 23.0 °F 30.9 °F 89% 30.22 in 5.0 mi ENE 18.4 mph 26.5 mph 0.05 in Rain Rain
3:54 AM 34.0 °F 22.1 °F 32.0 °F 92% 30.17 in 6.0 mi ENE 21.9 mph 32.2 mph 0.08 in Rain Light Rain
4:54 AM 35.1 °F 23.3 °F 34.0 °F 96% 30.13 in 7.0 mi East 23.0 mph 27.6 mph 0.03 in Rain Light Rain
5:54 AM 35.1 °F 23.5 °F 35.1 °F 100% 30.07 in 9.0 mi ENE 21.9 mph 34.5 mph 0.07 in Rain Light Rain
6:26 AM 35.6 °F 23.0 °F 35.6 °F 100% 30.00 in 10.0 mi ENE 27.6 mph 35.7 mph 0.00 in Rain Light Rain
6:54 AM 36.0 °F 23.7 °F 35.1 °F 97% 30.02 in 8.0 mi East 26.5 mph 36.8 mph 0.01 in Rain Light Rain
7:54 AM 36.0 °F 24.2 °F 36.0 °F 100% 29.99 in 10.0 mi East 24.2 mph 34.5 mph 0.01 in   Overcast
8:54 AM 37.0 °F 25.6 °F 35.1 °F 93% 29.94 in 10.0 mi East 24.2 mph 39.1 mph 0.00 in   Overcast
9:54 AM 37.9 °F 30.0 °F 37.9 °F 100% 29.97 in 9.0 mi ESE 12.7 mph 26.5 mph 0.00 in Rain Light Rain
10:54 AM 39.0 °F 30.6 °F - N/A% 29.92 in 6.0 mi East 15.0 mph 21.9 mph 0.00 in Rain Light Rain
11:54 AM 39.9 °F 30.8 °F - N/A% 29.84 in 6.0 mi East 18.4 mph 26.5 mph 0.01 in Rain Light Rain
12:54 PM 39.9 °F 30.0 °F - N/A% 29.81 in 6.0 mi East 21.9 mph 26.5 mph 0.00 in Rain Light Rain
1:54 PM 41.0 °F 32.8 °F - N/A% 29.76 in 10.0 mi East 16.1 mph 25.3 mph 0.00 in   Overcast
2:54 PM 41.0 °F 33.1 °F - N/A% 29.73 in 3.0 mi East 15.0 mph 25.3 mph 0.00 in Rain Light Rain
3:01 PM 41.0 °F 33.5 °F - N/A% 29.70 in 2.0 mi East 13.8 mph 23.0 mph 0.00 in Rain Light Rain
3:54 PM 42.1 °F 35.2 °F - N/A% 29.72 in 1.8 mi East 12.7 mph - 0.01 in Rain Light Rain
4:11 PM 42.8 °F 36.2 °F - N/A% 29.68 in 2.5 mi East 12.7 mph - 0.01 in Rain Light Rain
4:44 PM 42.8 °F 37.0 °F - N/A% 29.68 in 3.0 mi East 10.4 mph - 0.02 in Rain Light Rain
4:54 PM 42.1 °F 36.1 °F - N/A% 29.71 in 4.0 mi ESE 10.4 mph - 0.02 in Rain Light Rain
5:17 PM 42.8 °F 38.6 °F - N/A% 29.68 in 2.5 mi SE 6.9 mph - 0.00 in Rain Light Rain
5:46 PM 42.8 °F 37.5 °F - N/A% 29.67 in 4.0 mi South 9.2 mph - 0.00 in Rain Light Rain
5:54 PM 41.0 °F 35.8 °F - N/A% 29.70 in 4.0 mi South 8.1 mph - 0.00 in Rain Light Rain
6:16 PM 39.2 °F 31.6 °F - N/A% 29.67 in 4.0 mi South 12.7 mph - 0.00 in Rain Light Rain
6:35 PM 39.2 °F 33.0 °F - N/A% 29.67 in 4.0 mi South 9.2 mph - 0.00 in Rain Light Rain
6:45 PM 39.2 °F 33.6 °F - N/A% 29.67 in 4.0 mi South 8.1 mph - 0.00 in Rain Light Rain
6:54 PM 37.9 °F 30.5 °F - N/A% 29.71 in 4.0 mi South 11.5 mph - 0.00 in Rain Light Rain
7:03 PM 37.4 °F 30.3 °F - N/A% 29.67 in 9.0 mi South 10.4 mph - 0.00 in Rain Light Rain
7:11 PM 37.4 °F 29.8 °F - N/A% 29.67 in 9.0 mi South 11.5 mph - 0.00 in Rain Light Rain
7:18 PM 37.4 °F 29.8 °F - N/A% 29.67 in 10.0 mi South 11.5 mph - 0.00 in Rain Light Rain
7:38 PM 37.4 °F 31.4 °F - N/A% 29.67 in 7.0 mi SSW 8.1 mph - 0.00 in   Overcast
7:47 PM 37.4 °F 32.8 °F - N/A% 29.66 in 6.0 mi South 5.8 mph - 0.00 in   Haze
7:54 PM 37.9 °F 31.5 °F - N/A% 29.70 in 8.0 mi South 9.2 mph - 0.00 in   Overcast
8:54 PM 37.0 °F 31.0 °F - N/A% 29.69 in 8.0 mi South 8.1 mph - N/A   Overcast
9:08 PM 37.4 °F 31.4 °F - N/A% 29.66 in 9.0 mi South 8.1 mph - N/A   Overcast
9:44 PM 37.4 °F 32.1 °F - N/A% 29.65 in 10.0 mi South 6.9 mph - N/A   Overcast
9:54 PM 37.0 °F 31.0 °F - N/A% 29.68 in 10.0 mi South 8.1 mph - N/A   Overcast
10:54 PM 36.0 °F 30.3 °F - N/A% 29.68 in 7.0 mi SSW 6.9 mph - 0.00 in Rain Light Rain
11:54 PM 36.0 °F 30.3 °F - N/A% 29.67 in 5.0 mi SSW 6.9 mph - 0.00 in   Haze